Tracking 31027 objects as of 19-Jul-2025
HD Live streaming from Space Station
objects crossing your sky now

GENMAT-1

Track GENMAT-1 now!
10-day predictions


NORAD ID: 58276
Int'l Code: 2023-174W
Perigee: 489.4 km
Apogee: 498.4 km
Inclination: 97.4 °
Period: 94.3 minutes
Semi major axis: 6864 km
RCS: Unknown
Launch date: November 11, 2023
Source: United States (US)
Launch site: AIR FORCE WESTERN TEST RANGE (AFWTR)
Your satellite tracking list
KORSAT 7
Track 1 satellite(s)




NASA's NSSDC Master Catalog

Two Line Element Set (TLE):
1 58276U 23174W   25199.17686400  .00005982  00000-0  23296-3 0  9992
2 58276  97.4036 273.7539 0006608 295.0427  65.0125 15.26340009 93881
Source of the keplerian elements: AFSPC